Epoch 2001 Sept. 8.0 TT = JDT 2452160.5 T 2001 Sept. 20.8687 TT MPCM q 5.833993 (2000.0) P Q z +0.005825 Peri. 175.4614 +0.7350996 +0.3146778 +/-0.000000 Node 139.2614 -0.6473809 +0.5888250 e 0.966017 Incl. 66.9497 -0.2013121 -0.7444884 From 74 observations 2001 July 16-2003 Jan. 27, mean residual 0".7.
m1 = 7.0 + 5 logΔ + 10.0 log r